| time (UTC) | temp F | wind direction | speed knots | gust knots | rain 1hr in | rain 24hr in | rain mn in | humidity % | barometer mb |
| 20260503211515 | 62 | 252 | 1.7 | 2.6 | 0.00 | 0.00 | 0.00 | 60 | 1017.6 |
| 20260503211153 | 62 | 285 | 2.6 | 3.5 | 0.00 | 0.00 | 0.00 | 61 | 1017.5 |
| 20260503205505 | 62 | 288 | 2.6 | 3.5 | 0.00 | 0.00 | 0.00 | 62 | 1017.5 |
| 20260503204511 | 62 | 276 | 1.7 | 2.6 | 0.00 | 0.00 | 0.00 | 62 | 1017.5 |
| 20260503203507 | 62 | 274 | 1.7 | 2.6 | 0.00 | 0.00 | 0.00 | 63 | 1017.5 |
| 20260503202503 | 62 | 307 | 1.7 | 2.6 | 0.00 | 0.00 | 0.00 | 63 | 1017.5 |
| 20260503201828 | 61 | 192 | 0.0 | 0.9 | 0.00 | 0.00 | 0.00 | 61 | 1017.4 |
| 20260503201606 | 61 | 224 | 0.9 | 2.6 | 0.00 | 0.00 | 0.00 | 62 | 1017.4 |
| 20260503195504 | 62 | 192 | 0.9 | 0.9 | 0.00 | 0.00 | 0.00 | 59 | 1017.4 |
| 20260503194503 | 62 | 192 | 0.0 | 1.7 | 0.00 | 0.00 | 0.00 | 58 | 1017.3 |
| 20260503193502 | 62 | 221 | 0.0 | 1.7 | 0.00 | 0.00 | 0.00 | 58 | 1017.4 |
| 20260503192503 | 63 | 166 | 0.9 | 2.6 | 0.00 | 0.00 | 0.00 | 58 | 1017.3 |
| 20260503191500 | 63 | 147 | 1.7 | 3.5 | 0.00 | 0.00 | 0.00 | 57 | 1017.2 |
| 20260503190501 | 63 | 159 | 0.9 | 3.5 | 0.00 | 0.00 | 0.00 | 58 | 1017.2 |
| 20260503185502 | 64 | 134 | 1.7 | 3.5 | 0.00 | 0.00 | 0.00 | 58 | 1017.2 |
| 20260503184459 | 64 | 158 | 1.7 | 3.5 | 0.00 | 0.00 | 0.00 | 57 | 1017.1 |
| 20260503183459 | 65 | 168 | 0.9 | 2.6 | 0.00 | 0.00 | 0.00 | 57 | 1016.9 |
| 20260503182501 | 65 | 180 | 1.7 | 1.7 | 0.00 | 0.00 | 0.00 | 56 | 1017.1 |
| 20260503181459 | 66 | 0.0 | 2.6 | 0.00 | 0.00 | 0.00 | 56 | 1016.9 | |
| 20260503180501 | 66 | 248 | 0.0 | 3.5 | 0.00 | 0.00 | 0.00 | 55 | 1017.1 |
| 20260503175459 | 67 | 155 | 0.9 | 4.3 | 0.00 | 0.00 | 0.00 | 54 | 1016.9 |
| 20260503174500 | 68 | 159 | 2.6 | 4.3 | 0.00 | 0.00 | 0.00 | 52 | 1016.9 |
| 20260503173504 | 68 | 110 | 1.7 | 4.3 | 0.00 | 0.00 | 0.00 | 52 | 1016.9 |
| 20260503172459 | 68 | 63 | 1.7 | 4.3 | 0.00 | 0.00 | 0.00 | 52 | 1016.9 |
| 20260503171458 | 69 | 138 | 0.9 | 4.3 | 0.00 | 0.00 | 0.00 | 52 | 1017.1 |
| 20260503171222 | 69 | 148 | 1.7 | 6.1 | 0.00 | 0.00 | 0.00 | 51 | 1017.1 |
| 20260503130453 | 78 | 92 | 4.3 | 5.2 | 0.00 | 0.00 | 0.00 | 34 | 1018.2 |
| 20260503110448 | 76 | 11 | 0.0 | 3.5 | 0.00 | 0.00 | 0.00 | 32 | 1019.0 |
| 20260503100257 | 74 | 134 | 2.6 | 5.2 | 0.00 | 0.00 | 0.00 | 40 | 1019.8 |
| 20260503090434 | 74 | 144 | 2.6 | 5.2 | 0.00 | 0.00 | 0.00 | 36 | 1020.1 |
| 20260503090247 | 73 | 103 | 0.9 | 2.6 | 0.00 | 0.00 | 0.00 | 41 | 1020.1 |
| 20260503081432 | 69 | 221 | 0.9 | 2.6 | 0.00 | 0.00 | 0.00 | 42 | 1020.2 |
| 20260503080426 | 68 | 319 | 0.9 | 2.6 | 0.00 | 0.00 | 0.00 | 51 | 1020.4 |
| 20260503072424 | 64 | 227 | 0.0 | 2.6 | 0.00 | 0.00 | 0.00 | 60 | 1020.3 |
| 20260503071421 | 62 | 274 | 0.9 | 1.7 | 0.00 | 0.00 | 0.00 | 58 | 1020.3 |
| 20260503070419 | 61 | 243 | 0.9 | 2.6 | 0.00 | 0.00 | 0.00 | 60 | 1020.3 |
| 20260503060155 | 56 | 272 | 1.7 | 3.5 | 0.00 | 0.00 | 0.00 | 62 | 1020.1 |
| 20260503052412 | 54 | 272 | 1.7 | 3.5 | 0.00 | 0.00 | 0.00 | 64 | 1019.9 |
| 20260503051404 | 53 | 272 | 3.5 | 4.3 | 0.00 | 0.00 | 0.00 | 64 | 1019.8 |
| 20260503050407 | 53 | 271 | 1.7 | 2.6 | 0.00 | 0.00 | 0.00 | 64 | 1019.8 |
| 20260503045407 | 53 | 288 | 1.7 | 3.5 | 0.00 | 0.00 | 0.00 | 64 | 1019.7 |
| 20260503044409 | 53 | 255 | 2.6 | 3.5 | 0.00 | 0.00 | 0.00 | 64 | 1019.8 |
| 20260503043403 | 53 | 0.0 | 2.6 | 0.00 | 0.00 | 0.00 | 64 | 1019.7 | |
| 20260503042949 | 52 | 259 | 2.6 | 2.6 | 0.00 | 0.00 | 0.00 | 65 | 1019.7 |
| 20260503041359 | 52 | 264 | 1.7 | 3.5 | 0.00 | 0.00 | 0.00 | 66 | 1019.8 |
| 20260503040357 | 52 | 285 | 3.5 | 3.5 | 0.00 | 0.00 | 0.00 | 65 | 1019.7 |
| 20260503035358 | 52 | 283 | 2.6 | 3.5 | 0.00 | 0.00 | 0.00 | 65 | 1019.6 |
| 20260503034356 | 53 | 283 | 2.6 | 3.5 | 0.00 | 0.00 | 0.00 | 65 | 1019.6 |
| 20260503033352 | 53 | 275 | 1.7 | 2.6 | 0.00 | 0.00 | 0.00 | 65 | 1019.6 |
| 20260503032350 | 52 | 293 | 2.6 | 3.5 | 0.00 | 0.00 | 0.00 | 65 | 1019.8 |
| 20260503031351 | 52 | 289 | 2.6 | 3.5 | 0.00 | 0.00 | 0.00 | 65 | 1019.8 |
| 20260503030954 | 52 | 283 | 2.6 | 5.2 | 0.00 | 0.00 | 0.00 | 66 | 1019.9 |
| 20260503025350 | 52 | 285 | 1.7 | 2.6 | 0.00 | 0.00 | 0.00 | 66 | 1019.8 |
| 20260503024349 | 52 | 281 | 1.7 | 5.2 | 0.00 | 0.00 | 0.00 | 66 | 1019.9 |
| 20260503024209 | 52 | 282 | 2.6 | 3.5 | 0.00 | 0.00 | 0.00 | 66 | 1020.0 |
| 20260503023428 | 52 | 269 | 2.6 | 3.5 | 0.00 | 0.00 | 0.00 | 66 | 1019.9 |
| 20260503021351 | 52 | 282 | 3.5 | 4.3 | 0.00 | 0.00 | 0.00 | 67 | 1020.0 |
| 20260503020557 | 52 | 286 | 3.5 | 4.3 | 0.00 | 0.00 | 0.00 | 67 | 1020.0 |
| 20260503020418 | 52 | 0.0 | 2.6 | 0.00 | 0.00 | 0.00 | 67 | 1020.1 | |
| 20260503014341 | 53 | 0.0 | 4.3 | 0.00 | 0.00 | 0.00 | 66 | 1020.1 | |
| 20260503013339 | 53 | 279 | 3.5 | 6.1 | 0.00 | 0.00 | 0.00 | 66 | 1020.1 |
| 20260503013056 | 53 | 266 | 2.6 | 6.1 | 0.00 | 0.00 | 0.00 | 66 | 1020.2 |
| 20260503012048 | 53 | 269 | 2.6 | 3.5 | 0.00 | 0.00 | 0.00 | 66 | 1020.3 |
| 20260503010337 | 53 | 265 | 3.5 | 3.5 | 0.00 | 0.00 | 0.00 | 66 | 1020.2 |
| 20260503005947 | 53 | 0.0 | 0.0 | 0.00 | 0.00 | 0.00 | 66 | 1020.4 | |
| 20260503004337 | 53 | 279 | 2.6 | 2.6 | 0.00 | 0.00 | 0.00 | 66 | 1020.5 |
| 20260503003338 | 53 | 0.0 | 0.0 | 0.00 | 0.00 | 0.00 | 67 | 1020.6 | |
| 20260503002340 | 53 | 0.0 | 0.0 | 0.00 | 0.00 | 0.00 | 66 | 1020.7 | |
| 20260503001336 | 53 | 266 | 2.6 | 4.3 | 0.00 | 0.00 | 0.00 | 67 | 1020.7 |
| 20260503000335 | 52 | 264 | 3.5 | 5.2 | 0.00 | 0.00 | 0.00 | 68 | 1020.8 |
| 20260502235336 | 53 | 283 | 3.5 | 6.1 | 0.00 | 0.00 | 0.00 | 67 | 1021.0 |
| 20260502234334 | 53 | 275 | 2.6 | 3.5 | 0.00 | 0.00 | 0.00 | 67 | 1021.1 |
| 20260502233922 | 52 | 275 | 2.6 | 5.2 | 0.00 | 0.00 | 0.00 | 68 | 1021.1 |
| 20260502232335 | 53 | 276 | 3.5 | 6.1 | 0.00 | 0.00 | 0.00 | 67 | 1021.1 |
| 20260502232137 | 53 | 272 | 4.3 | 5.2 | 0.00 | 0.00 | 0.00 | 66 | 1021.3 |
| 20260502230335 | 54 | 265 | 3.5 | 3.5 | 0.00 | 0.00 | 0.00 | 66 | 1021.3 |
| 20260502225335 | 53 | 275 | 1.7 | 2.6 | 0.00 | 0.00 | 0.00 | 66 | 1021.4 |
| 20260502224334 | 53 | 276 | 1.7 | 3.5 | 0.00 | 0.00 | 0.00 | 66 | 1021.5 |
| 20260502223334 | 54 | 281 | 2.6 | 3.5 | 0.00 | 0.00 | 0.00 | 66 | 1021.6 |
| 20260502222340 | 54 | 281 | 1.7 | 4.3 | 0.00 | 0.00 | 0.00 | 66 | 1021.7 |
| 20260502221335 | 54 | 279 | 2.6 | 5.2 | 0.00 | 0.00 | 0.00 | 65 | 1021.6 |
| 20260502220333 | 54 | 279 | 3.5 | 6.1 | 0.00 | 0.00 | 0.00 | 65 | 1021.6 |
| 20260502215333 | 54 | 285 | 2.6 | 3.5 | 0.00 | 0.00 | 0.00 | 65 | 1021.8 |
| 20260502214332 | 55 | 266 | 2.6 | 3.5 | 0.00 | 0.00 | 0.00 | 64 | 1021.7 |
| 20260502213331 | 55 | 283 | 1.7 | 3.5 | 0.00 | 0.00 | 0.00 | 63 | 1021.9 |
| 20260502212445 | 55 | 305 | 1.7 | 2.6 | 0.00 | 0.00 | 0.00 | 62 | 1021.8 |
| 20260502212424 | 55 | 266 | 1.7 | 5.2 | 0.00 | 0.00 | 0.00 | 63 | 1021.8 |